Temperature
28 29 29 29 29 29 29 29 29 29 29 28 27 26 25 24 23 22 21 20 20 19 19 19 19 18 19 19 18 18 18 18 18 18 18 18 17 17 17 17 17 17 17 17
27 28 28 28 28 28 28 28 28 28 28 27 26 25 24 23 22 22 21 20 19 19 19 18 18 18 18 18 18 18 18 18 17 17 17 17 17 17 17 17 17 17 17 17
27 28 27 27 28 28 28 28 28 28 27 26 25 24 23 22 21 21 20 20 19 19 18 18 18 18 17 17 17 17 17 17 17 17 17 17 17 17 17 17 17 16 16 16
27 26 25 27 27 27 27 27 27 27 26 25 24 22 21 21 21 20 19 19 19 18 18 18 18 18 17 17 17 17 17 17 17 16 16 16 16 16 17 16 16 16 16 16
26 26 26 26 26 26 26 26 26 26 25 24 22 22 21 20 20 19 19 18 18 18 18 18 17 17 17 17 17 17 16 17 17 16 16 16 16 16 16 16 16 16 16 16
25 25 25 26 25 25 26 25 25 25 24 23 22 24 23 19 19 18 18 17 17 17 17 17 17 17 16 16 16 16 16 16 16 16 16 16 16 16 16 16 16 15 15 15
25 25 26 24 24 24 24 24 23 23 22 22 22 22 20 18 18 17 17 17 16 16 16 16 16 16 16 16 16 16 16 15 15 15 16 16 16 15 15 15 15 15 15 15
24 24 24 23 23 24 23 21 21 21 21 20 20 19 18 18 17 17 16 16 16 16 16 16 16 16 16 16 16 15 15 15 15 15 15 15 15 15 15 15 15 15 15 14
23 23 21 21 21 20 20 20 20 20 20 19 19 18 18 17 17 16 16 16 15 15 15 15 15 15 15 15 15 15 15 15 14 14 14 14 14 14 14 14 14 14 14 14
21 22 21 20 20 19 19 19 19 19 19 18 18 17 17 16 16 16 15 15 15 15 15 15 15 14 15 15 15 15 15 14 14 14 14 14 14 14 14 14 14 14 14 13
20 20 20 20 19 19 18 18 18 18 18 18 17 17 16 16 15 15 15 14 14 14 14 14 14 14 14 14 14 14 14 14 14 14 14 14 14 14 14 14 14 13 13 13
21 20 20 19 18 18 18 17 17 17 17 17 17 16 16 15 15 14 14 14 14 14 14 14 13 13 13 13 14 13 13 13 14 14 13 13 13 13 13 13 13 13 13 13
19 19 18 18 17 17 17 17 17 16 16 16 16 15 15 15 14 14 14 14 13 13 13 13 13 13 13 13 13 13 13 13 13 13 13 13 13 13 13 13 13 13 13 13
17 17 17 17 17 16 16 16 16 16 15 15 15 15 14 14 14 13 13 13 13 13 13 12 12 12 13 12 12 12 12 12 12 12 13 13 13 13 13 13 13 13 13 12
16 16 16 16 15 15 15 15 15 15 15 14 14 14 14 13 13 13 13 13 12 12 12 12 12 12 12 12 12 12 12 12 12 12 12 12 12 13 13 13 13 13 13 13
15 15 15 15 15 15 15 15 15 14 14 14 14 13 13 13 12 12 12 12 12 12 12 12 12 12 12 12 12 12 12 12 12 12 12 12 12 12 13 12 12 12 12 12
15 15 15 15 14 14 14 14 14 14 14 13 13 13 12 12 12 12 12 12 12 12 12 12 12 12 11 11 11 12 12 12 11 11 12 12 12 12 12 12 12 12 12 12
14 14 14 14 14 14 13 13 13 13 13 13 12 12 12 12 12 12 12 12 12 11 11 11 11 11 11 11 11 11 11 12 11 11 11 11 11 12 12 12 12 12 11 11
14 13 13 13 13 13 13 13 13 12 12 12 12 12 12 11 11 11 11 11 11 11 11 11 11 11 11 11 11 11 11 11 11 11 11 11 11 11 11 11 11 11 11 11
13 13 13 13 13 13 12 12 12 12 12 11 11 11 11 11 11 11 11 11 11 11 11 11 11 11 11 11 11 11 11 11 11 11 11 11 11 11 11 11 11 11 11 11
13 12 12 12 12 12 12 12 11 11 11 11 11 11 11 11 10 10 11 11 10 10 10 10 11 10 10 10 10 10 11 11 11 11 10 10 10 10 11 10 10 10 10 10
12 12 12 12 11 11 11 11 11 11 11 10 10 10 10 10 10 10 10 10 10 10 10 10 10 10 10 10 10 10 10 10 10 10 10 10 10 10 10 10 10 10 10 10
11 11 11 11 11 11 11 10 10 10 10 10 10 10 10 10 10 10 10 10 10 10 10 10 10 10 10 10 10 10 10 10 9 10 10 9 9 9 9 9 9 9 9 9
11 11 11 11 11 11 10 10 10 10 10 9 9 9 9 9 10 10 10 9 9 9 9 9 9 9 9 9 9 9 9 9 9 9 9 9 9 9 8 8 8 8 8 8
10 10 10 10 10 10 10 10 10 9 9 9 9 9 9 9 9 9 9 9 9 9 9 9 9 9 9 9 9 9 9 9 9 9 9 8 8 8 8 8 8 8 8 7
10 10 10 10 10 10 10 10 10 10 10 9 9 9 9 9 9 9 8 8 8 8 8 8 8 8 8 8 8 8 8 8 8 8 8 8 8 8 8 7 7 7 7 7
10 10 10 10 10 10 10 10 10 10 9 9 9 9 9 8 8 8 8 8 8 8 8 8 8 8 8 8 8 8 8 8 8 8 8 7 7 7 7 7 7 7 7 7
Wind_Speed
8 6 7 9 10 11 12 11 11 8 7 3 2 3 4 4 4 4 4 3 3 2 2 2 2 1 1 2 2 3 4 4 4 4 4 4 4 4 4 4 4 4 4 4
9 7 8 10 10 10 11 10 10 9 6 0 2 3 4 4 4 3 3 2 2 1 1 1 1 1 1 1 2 3 4 4 4 4 4 4 4 3 3 3 3 3 4 4
10 7 9 12 10 10 10 8 9 9 4 3 4 3 4 4 4 3 2 1 1 1 0 0 1 1 1 2 2 3 3 3 4 3 3 3 3 3 3 3 3 3 3 3
8 7 12 4 2 5 7 7 6 3 2 3 3 3 3 3 3 2 1 1 1 0 0 1 1 1 1 1 1 2 2 2 2 3 3 3 3 2 2 2 3 3 3 3
8 11 10 5 4 5 7 6 4 4 3 4 4 4 4 3 2 1 1 1 1 1 1 1 1 0 0 1 1 1 2 2 2 2 3 3 3 3 3 3 3 3 3 3
9 10 11 3 3 1 5 8 2 2 3 4 5 5 2 3 2 1 2 2 2 2 2 2 2 1 1 1 2 2 2 2 2 3 3 3 3 3 3 3 3 4 3 4
11 10 7 3 2 4 7 2 2 1 3 4 4 1 2 2 2 1 2 2 2 2 2 2 2 1 2 2 3 3 3 2 3 3 3 4 3 3 3 4 3 4 4 4
9 10 5 4 2 3 2 2 0 2 3 3 3 2 2 3 2 1 1 1 2 2 2 2 2 1 2 3 3 3 3 3 3 3 3 3 3 4 4 4 4 4 4 5
3 2 3 1 1 2 1 1 0 1 2 3 3 2 2 2 1 0 0 1 1 1 2 3 2 2 3 3 3 2 2 2 3 3 3 3 4 4 4 4 5 4 4 4
2 2 1 1 1 0 1 1 0 1 2 3 3 3 2 1 1 1 1 1 1 2 3 3 3 3 3 3 2 2 2 2 3 3 3 3 4 4 4 4 4 4 4 4
4 3 2 2 1 1 1 1 0 1 1 2 2 2 2 2 2 2 2 2 2 2 3 3 3 3 3 3 2 2 2 3 3 3 3 3 3 3 4 3 3 4 4 4
5 3 3 3 2 1 1 1 1 1 1 1 2 2 2 2 2 2 3 2 3 3 3 3 3 3 3 3 3 3 3 3 3 3 2 3 3 2 1 2 1 3 3 5
4 3 2 2 2 1 1 1 1 2 2 2 2 2 2 3 3 3 3 3 4 4 3 3 3 3 3 3 3 3 4 3 3 3 3 3 3 3 3 2 3 4 4 4
2 2 2 2 2 1 1 2 2 2 2 2 2 3 3 3 3 3 4 4 3 3 3 3 3 3 3 3 3 4 4 3 3 3 3 3 3 3 3 3 3 3 4 5
3 3 2 1 1 1 2 2 3 3 3 3 3 3 3 4 4 4 4 3 3 3 3 3 3 4 3 3 3 4 4 3 3 3 3 3 3 3 3 3 3 3 2 2
3 2 1 1 2 2 3 3 3 4 4 4 4 4 4 4 4 4 4 4 3 3 3 3 4 4 4 4 4 4 4 4 4 4 4 4 4 4 4 4 4 3 3 2
3 2 2 2 2 2 2 3 3 4 4 4 4 4 4 4 4 4 4 4 3 3 4 4 4 4 4 4 5 5 4 4 5 5 5 4 4 4 4 4 4 3 3 2
3 3 3 3 2 2 3 3 3 3 3 3 4 4 4 4 4 3 3 3 4 4 4 4 4 4 4 5 5 5 5 4 4 4 4 4 4 4 4 4 4 4 4 2
1 1 2 2 2 2 2 2 2 2 2 2 3 3 3 3 4 3 3 4 4 4 5 5 5 5 5 5 5 4 5 4 4 4 4 4 5 5 4 5 4 4 3 2
1 1 1 1 2 1 1 1 1 1 2 2 2 2 3 3 3 3 4 4 3 4 4 5 5 5 5 5 5 5 5 5 4 4 4 4 4 4 4 4 4 3 3 3
2 2 2 2 2 2 2 2 1 2 2 2 2 2 3 3 3 3 4 4 4 4 5 5 5 4 4 4 5 4 4 4 4 4 3 3 3 4 4 4 4 3 3 3
1 1 1 2 2 3 3 2 2 2 2 2 3 3 3 3 3 3 4 4 4 4 4 4 3 2 4 5 4 4 4 4 3 3 3 3 3 3 3 3 3 3 3 3
1 1 1 1 2 2 3 3 2 2 2 2 3 4 4 4 3 3 3 3 3 3 4 3 3 3 3 4 4 4 4 3 3 3 2 2 2 2 2 3 3 3 3 3
1 1 1 1 1 2 2 2 3 2 2 2 2 3 4 3 3 3 2 1 3 3 3 2 3 3 4 3 3 3 3 2 2 2 2 1 1 1 2 2 2 2 3 3
1 1 1 1 1 1 1 2 2 2 2 2 3 3 3 2 2 3 3 2 2 2 2 0 0 2 2 2 2 1 1 1 1 1 1 1 1 1 1 2 2 2 2 2
0 0 1 1 2 2 1 2 2 1 2 2 2 3 3 2 2 2 2 2 2 2 2 2 1 1 1 2 2 2 1 0 0 0 1 1 1 2 2 2 2 2 2 2
1 0 0 1 1 1 1 1 2 2 2 2 2 2 3 3 2 2 2 2 1 2 2 2 2 2 2 2 2 2 1 1 1 1 1 2 2 2 2 2 2 2 2 2
Wind_Direction
254 253 234 231 228 227 236 249 254 252 247 236 173 162 162 153 146 141 131 123 113 104 97 97 117 135 156 177 192 192 191 200 210 220 219 222 225 222 221 228 234 235 242 242
236 235 232 238 236 230 233 242 246 252 249 21 117 145 155 156 157 151 147 142 131 121 113 110 139 171 194 199 201 207 211 213 216 225 226 225 224 224 227 232 243 245 247 242
234 222 233 233 229 227 227 235 246 248 237 151 158 162 171 168 164 160 156 149 147 157 180 217 247 218 225 229 221 217 220 221 221 224 229 233 234 228 234 240 240 239 241 237
235 223 236 226 178 226 230 232 240 253 165 157 160 155 160 159 153 141 123 92 49 347 301 278 275 247 228 218 222 229 236 242 236 229 233 235 231 231 238 245 246 247 246 239
233 236 237 205 200 216 224 228 230 229 188 158 147 150 151 121 112 113 88 47 24 3 1 2 344 338 236 249 236 239 246 247 245 236 229 226 231 236 234 237 247 250 246 247
234 244 245 214 143 216 238 228 180 212 189 182 191 227 174 114 96 76 60 47 36 32 25 21 354 325 247 258 260 261 259 257 244 236 236 236 234 238 239 237 243 251 253 255
234 241 244 80 149 206 230 245 114 206 191 194 211 303 101 124 103 76 61 53 43 31 20 9 351 336 266 266 269 277 277 265 255 243 241 241 240 238 239 239 238 246 252 254
233 238 229 78 176 225 350 20 160 167 175 175 149 120 120 128 129 119 78 55 36 20 2 344 341 338 311 302 303 294 283 272 264 255 255 246 243 244 242 245 242 241 248 256
253 272 48 45 13 15 348 327 130 175 176 173 173 171 162 159 164 184 6 6 358 349 338 326 322 323 319 329 332 319 300 287 287 270 262 258 248 243 243 244 254 257 256 260
237 231 265 269 279 304 334 333 14 172 173 179 188 190 201 215 229 250 277 292 313 318 318 323 322 318 314 319 318 298 289 292 284 273 264 260 261 252 249 250 256 263 264 266
236 248 248 233 265 297 356 28 102 176 188 201 196 205 225 244 254 267 275 284 291 307 312 314 316 315 316 320 309 291 284 280 276 270 264 263 260 270 265 262 267 264 269 271
253 247 257 273 287 271 238 215 188 199 207 218 224 232 250 267 278 275 274 282 286 294 297 306 308 307 313 311 297 284 277 281 283 283 274 264 258 258 302 272 230 240 269 288
274 277 273 283 284 270 253 250 242 240 245 258 258 261 268 271 271 272 273 275 279 279 280 288 292 297 301 303 295 282 281 284 285 287 280 267 264 266 267 245 214 224 226 249
286 264 252 252 260 266 264 267 268 272 271 267 266 263 266 268 271 274 276 277 277 276 278 280 283 291 302 298 282 271 270 267 272 275 275 274 275 273 270 272 265 253 219 203
280 263 258 270 261 264 260 257 257 261 264 266 266 262 261 263 265 270 276 272 264 263 273 284 290 296 299 288 274 268 267 271 270 273 270 268 274 274 270 266 268 273 272 197
283 264 243 255 269 268 259 258 260 260 256 257 262 262 260 260 265 272 272 266 259 264 270 275 279 289 289 280 272 262 256 261 264 263 264 263 264 265 263 261 264 271 274 281
238 236 241 260 271 275 276 276 274 267 258 257 264 266 262 261 262 266 272 275 269 269 273 274 277 282 279 273 266 262 257 242 233 253 259 262 264 263 264 267 269 272 275 276
242 249 261 262 263 275 285 286 280 270 262 261 262 259 253 254 259 266 272 277 275 277 279 278 278 279 275 271 268 269 263 257 251 255 259 260 262 260 260 262 266 271 280 272
239 262 281 291 289 275 280 291 291 285 273 264 263 263 264 268 273 273 276 277 275 281 288 287 279 274 274 276 271 256 262 262 258 257 257 255 257 262 266 269 271 274 279 274
104 34 1 8 355 328 332 340 330 306 294 279 277 280 282 286 288 283 278 277 290 299 299 294 280 271 270 267 263 255 254 254 256 259 258 260 265 269 271 271 274 278 281 278
88 66 54 40 26 13 3 358 349 333 325 313 300 297 301 302 295 287 281 283 294 299 294 280 274 275 270 272 250 253 253 256 258 259 261 266 271 274 277 283 286 286 289 289
76 55 40 30 26 20 15 7 352 339 338 327 316 310 305 291 280 280 281 291 296 307 294 286 285 287 281 270 255 257 256 257 262 259 258 265 270 275 283 292 292 295 301 306
67 56 39 31 27 21 13 3 350 339 329 320 316 312 303 296 290 283 284 299 301 308 296 303 331 337 290 260 259 258 258 259 260 261 263 275 291 293 293 299 307 316 319 318
76 51 40 35 31 17 1 356 349 336 318 304 307 308 297 290 292 297 300 325 339 326 317 2 3 325 277 271 272 262 257 257 257 262 276 286 289 291 304 312 321 333 334 329
77 53 33 21 349 330 328 321 321 321 312 330 339 335 320 319 317 324 330 340 353 320 317 33 213 272 271 292 291 290 277 285 290 282 291 325 320 332 340 330 324 331 337 344
102 9 19 341 327 307 293 291 295 311 323 330 337 340 348 354 342 330 334 340 340 338 332 336 339 285 305 321 325 328 323 14 109 295 11 350 338 351 356 352 357 360 359 360
177 118 344 325 317 310 306 306 310 315 321 325 334 353 1 0 358 359 357 1 5 350 345 341 336 329 328 336 341 339 343 357 354 355 10 10 8 10 10 6 355 354 352 0
Height
1479 1477 1477 1481 1482 1483 1484 1483 1486 1485 1485 1487 1490 1495 1499 1501 1504 1506 1507 1508 1508 1509 1510 1511 1512 1512 1513 1514 1514 1515 1516 1516 1517 1517 1517 1518 1518 1518 1519 1519 1519 1519 1519 1520
1484 1479 1480 1482 1480 1481 1483 1483 1483 1484 1485 1487 1493 1496 1499 1501 1503 1505 1506 1507 1508 1509 1509 1510 1510 1511 1511 1512 1512 1513 1514 1514 1515 1515 1515 1515 1515 1516 1516 1516 1516 1516 1516 1517
1484 1480 1482 1486 1480 1480 1481 1480 1481 1484 1485 1490 1493 1496 1499 1501 1503 1505 1506 1507 1507 1508 1508 1509 1509 1510 1510 1510 1511 1511 1511 1512 1512 1512 1513 1513 1513 1513 1513 1513 1513 1513 1513 1513
1482 1487 1497 1480 1476 1477 1479 1480 1481 1483 1486 1491 1494 1498 1500 1501 1503 1504 1505 1506 1506 1507 1507 1507 1508 1508 1508 1509 1509 1509 1509 1510 1510 1510 1510 1510 1510 1510 1510 1510 1510 1510 1510 1510
1482 1485 1482 1480 1479 1479 1481 1483 1483 1484 1487 1492 1495 1497 1499 1501 1502 1504 1505 1505 1505 1506 1506 1506 1506 1506 1506 1507 1507 1507 1507 1507 1507 1507 1507 1506 1506 1507 1507 1507 1507 1507 1507 1506
1483 1488 1488 1478 1479 1482 1483 1485 1485 1486 1488 1491 1493 1492 1495 1500 1501 1503 1504 1504 1504 1504 1504 1504 1504 1504 1504 1505 1505 1505 1504 1504 1504 1504 1503 1503 1503 1503 1503 1503 1503 1503 1503 1502
1482 1484 1477 1480 1482 1483 1488 1486 1487 1488 1490 1491 1492 1494 1497 1499 1500 1502 1502 1502 1503 1503 1503 1502 1502 1502 1502 1502 1502 1502 1502 1501 1500 1500 1500 1500 1500 1500 1500 1500 1499 1499 1499 1498
1480 1484 1483 1484 1482 1484 1486 1488 1488 1489 1491 1493 1494 1496 1497 1498 1499 1501 1501 1501 1501 1501 1500 1500 1500 1500 1499 1499 1499 1498 1498 1498 1497 1497 1497 1497 1496 1496 1496 1496 1495 1495 1495 1495
1480 1483 1486 1486 1487 1489 1489 1489 1489 1490 1492 1493 1494 1496 1497 1498 1499 1499 1500 1500 1500 1500 1499 1499 1498 1498 1497 1496 1496 1495 1495 1495 1494 1494 1494 1494 1493 1493 1493 1492 1493 1492 1492 1491
1483 1483 1486 1488 1488 1489 1489 1489 1490 1491 1492 1493 1494 1495 1496 1496 1497 1498 1498 1498 1498 1498 1497 1496 1496 1495 1494 1494 1493 1492 1492 1492 1491 1491 1491 1490 1490 1490 1489 1489 1489 1489 1488 1488
1484 1485 1486 1487 1488 1488 1489 1489 1490 1491 1492 1492 1493 1494 1494 1495 1495 1495 1496 1496 1496 1495 1494 1494 1493 1493 1492 1491 1490 1490 1489 1489 1489 1488 1487 1487 1486 1486 1486 1486 1485 1485 1484 1484
1482 1485 1486 1486 1487 1488 1488 1489 1489 1490 1491 1491 1492 1492 1493 1493 1493 1493 1494 1493 1493 1492 1492 1491 1491 1490 1489 1488 1488 1487 1487 1486 1486 1486 1485 1484 1483 1482 1482 1482 1481 1481 1480 1480
1484 1485 1486 1486 1487 1487 1488 1488 1489 1489 1489 1489 1490 1490 1490 1491 1491 1491 1491 1491 1490 1490 1489 1489 1488 1487 1486 1486 1485 1484 1484 1483 1483 1483 1482 1482 1481 1480 1479 1478 1477 1477 1476 1475
1485 1485 1485 1486 1486 1487 1487 1487 1487 1487 1487 1488 1488 1488 1488 1488 1488 1488 1488 1488 1487 1487 1486 1486 1485 1484 1483 1482 1482 1481 1481 1481 1480 1480 1479 1479 1478 1477 1476 1475 1474 1473 1473 1471
1485 1485 1484 1484 1485 1485 1485 1485 1485 1485 1485 1485 1485 1485 1485 1485 1485 1485 1485 1485 1484 1484 1483 1483 1481 1480 1480 1479 1479 1479 1479 1478 1478 1477 1476 1475 1474 1474 1473 1472 1471 1470 1469 1468
1483 1483 1483 1483 1483 1483 1483 1483 1483 1483 1482 1482 1482 1482 1482 1482 1482 1482 1482 1481 1481 1480 1480 1479 1478 1477 1476 1476 1476 1476 1475 1475 1474 1474 1473 1472 1471 1470 1470 1469 1468 1467 1466 1465
1482 1481 1481 1481 1481 1481 1481 1481 1481 1480 1480 1480 1480 1480 1479 1479 1479 1478 1478 1478 1477 1477 1476 1475 1474 1474 1473 1472 1472 1472 1472 1471 1470 1470 1470 1469 1468 1467 1466 1466 1465 1464 1463 1462
1481 1481 1481 1481 1480 1480 1480 1479 1478 1478 1477 1477 1477 1477 1477 1476 1475 1475 1475 1474 1474 1473 1472 1472 1471 1470 1469 1469 1468 1468 1468 1468 1468 1467 1466 1465 1464 1464 1463 1462 1462 1461 1460 1459
1479 1479 1480 1479 1479 1478 1478 1477 1477 1476 1475 1475 1475 1474 1474 1474 1473 1472 1472 1471 1470 1469 1469 1468 1467 1467 1466 1465 1465 1465 1465 1464 1464 1464 1463 1462 1461 1461 1460 1460 1459 1457 1457 1456
1479 1479 1479 1479 1478 1477 1477 1476 1475 1475 1474 1473 1473 1472 1472 1471 1470 1469 1469 1468 1467 1467 1466 1465 1464 1463 1462 1462 1462 1462 1462 1461 1461 1460 1460 1459 1458 1458 1457 1456 1455 1454 1454 1453
1478 1478 1478 1478 1478 1477 1476 1475 1475 1474 1473 1472 1471 1470 1469 1468 1468 1467 1466 1465 1464 1463 1462 1461 1460 1459 1459 1459 1459 1459 1458 1458 1458 1457 1457 1456 1455 1454 1454 1453 1452 1451 1451 1450
1477 1478 1478 1477 1477 1476 1475 1474 1474 1473 1471 1471 1470 1468 1467 1466 1465 1464 1464 1463 1462 1460 1459 1458 1457 1456 1456 1456 1456 1456 1455 1455 1455 1454 1454 1453 1452 1452 1451 1450 1450 1449 1448 1447
1477 1477 1477 1477 1476 1475 1475 1474 1473 1472 1470 1469 1468 1466 1465 1464 1463 1462 1461 1461 1459 1458 1457 1456 1455 1454 1453 1453 1453 1453 1452 1452 1452 1451 1451 1451 1450 1449 1449 1448 1447 1447 1446 1445
1476 1476 1476 1476 1475 1474 1473 1473 1471 1470 1469 1468 1466 1464 1463 1462 1461 1460 1459 1458 1456 1455 1454 1453 1452 1451 1450 1450 1450 1450 1449 1449 1449 1449 1448 1448 1447 1447 1447 1446 1445 1444 1444 1443
1476 1475 1475 1475 1474 1473 1472 1471 1470 1468 1467 1466 1465 1463 1462 1461 1460 1458 1457 1456 1454 1453 1452 1451 1450 1449 1448 1448 1447 1447 1446 1446 1446 1446 1445 1445 1445 1445 1444 1444 1443 1443 1442 1442
1475 1475 1474 1474 1473 1472 1471 1470 1469 1467 1466 1465 1464 1463 1462 1460 1458 1457 1456 1455 1453 1452 1451 1450 1449 1448 1447 1447 1446 1445 1445 1444 1444 1444 1443 1443 1444 1443 1442 1442 1442 1441 1441 1440
1474 1474 1473 1473 1472 1472 1470 1469 1468 1467 1466 1465 1464 1463 1461 1460 1458 1457 1456 1455 1453 1452 1451 1450 1448 1447 1447 1446 1445 1444 1444 1443 1443 1443 1442 1442 1442 1441 1441 1441 1440 1440 1440 1439